Regional Weather Roundup
Issued by NWS Grand Forks, ND

Home | Current Version | Previous Version | Graphics & Text | Print | Product List | Glossary On
Versions: 1 2 3 4 5 6 7 8 9 10 11 12 13 14 15 16 17 18 19 20 21 22 23 24 25 26 27 28 29 30 31 32 33 34 35 36 37 38 39 40 41 42 43 44 45 46 47 48 49 50
000
ASUS43 KFGF 191210
RWRFGF
PRAIRIE TO PINES  WEATHER ROUNDUP
NATIONAL WEATHER SERVICE EASTERN NORTH DAKOTA/GRAND FORKS ND
600 AM CST FRI DEC 19 2014

 **SATELLITE DATA USED TO AUGMENT SKY COVER AT AUTOMATED STATIONS**
 *****  WEATHER ACROSS EASTERN NORTH DAKOTA  *****

CITY           SKY/WX    TMP DP  RH WIND       PRES   REMARKS
GRAND FORKS    CLOUDY    22  20  92 S9        30.07F FOG     WCI  12
6HR MIN TEMP:  20; 6HR MAX TEMP:  22;

GRAND FRKS AFB CLOUDY    22  22 100 S10       30.07S WCI  11
DEVILS LAKE    CLOUDY    25  18  74 S8        29.96F WCI  16
6HR MIN TEMP:  21; 6HR MAX TEMP:  25;

FARGO          CLOUDY    24  22  91 S15       30.10F FOG     WCI  11
WAHPETON ARPT  CLOUDY    25  21  86 S8        30.13R WCI  16
$$

 ***** WEATHER ACROSS CENTRAL AND WESTERN NORTH DAKOTA  *****

CITY           SKY/WX    TMP DP  RH WIND       PRES   REMARKS
BISMARCK       CLOUDY    22  21  96 SE5       29.96F WCI  16
6HR MIN TEMP:  18; 6HR MAX TEMP:  27;

MINOT          FOG       27  26  96 CALM      29.92F VSB 1/2
6HR MIN TEMP:  25; 6HR MAX TEMP:  27;

JAMESTOWN      CLOUDY    26  25  96 S12       30.00S FOG     WCI  16
6HR MIN TEMP:  24; 6HR MAX TEMP:  26;

MINOT AFB      FRZ DRZL  26  26 100 E2        29.92F
GARRISON         N/A     22  20  92 E5        29.92S WCI  16
WILLISTON      FOG       22  21  96 CALM      29.92S VSB 1/4
6HR MIN TEMP:  22; 6HR MAX TEMP:  28;

DICKINSON      CLOUDY    32  24  72 W6        29.89S
6HR MIN TEMP:  26; 6HR MAX TEMP:  32;

HETTINGER      CLOUDY    25  21  85 W5        29.93S WCI  19
6HR MIN TEMP:  20; 6HR MAX TEMP:  28;

$$

 *****  OTHER AIRPORT OBSERVATIONS IN OUR AREA  *****

CITY           SKY/WX    TMP DP  RH WIND       PRES   REMARKS
WALHALLA         N/A     19  19 100 S9        30.05S FOG     WCI   9
GRAFTON AIRPOR NOT AVBL
VALLEY CITY AR CLOUDY    25  25 100 S9        30.03S FOG     WCI  15
CANDO          CLOUDY    25  23  93 SE8       29.98S FOG     WCI  16
CAVALIER APRT  CLOUDY    21  21 100 S8        30.06S FOG     WCI  12
GWINNER        CLOUDY    30  30 100 MISG      30.07F
ROLLA          CLOUDY    23  23 100 S3        29.95F FOG
 ***** THE ABOVE OBSERVATIONS ARE NON NWS ARE NOT QUALITY
       CONTROLLED AND MAY MIS-REPORT RAIN FOR SNOW...
$$

  *****  WEATHER ACROSS NORTHERN MINNESOTA  *****

CITY           SKY/WX    TMP DP  RH WIND       PRES   REMARKS
FLAG ISLAND    CLOUDY    19  18  93 S15       30.11F WCI   5
WARROAD        CLOUDY    19  16  86 SE10      30.12S WCI   8
ROSEAU         CLOUDY    21  18  86 S10       30.11S WCI  10
HALLOCK        CLOUDY    23  19  86 S14       30.08S WCI  11
THF RVR FALLS  CLOUDY    21  18  86 S9        30.10S WCI  11
6HR MIN TEMP:  19; 6HR MAX TEMP:  21;

BAUDETTE       CLOUDY    20  16  84 S5        30.13S WCI  13
6HR MIN TEMP:  19; 6HR MAX TEMP:  20;

WASKISH        CLOUDY    19  18  93 CALM      30.14S
CROOKSTON      CLOUDY    23  21  93 S14       30.10F FOG     WCI  11
STEPHEN NDAWN    N/A     21  19  93 S12         N/A  WCI   9
GREENBUSH NDAW   N/A     21  18  86 SE12        N/A  WCI   9
$$
  *****  WEATHER ACROSS CENTRAL AND WEST MINNESOTA  *****

CITY           SKY/WX    TMP DP  RH WIND       PRES   REMARKS
FOSSTON        LGT SNOW  19  18  93 SE8       30.11S WCI   9
BEMIDJI        FLURRIES  19  16  89 S7        30.13S WCI   9
PARK RAPIDS    CLOUDY    19  16  88 SE10      30.12F WCI   7
6HR MIN TEMP:  19; 6HR MAX TEMP:  19; 6HR PCP: TRACE;

ELBOW LAKE     CLOUDY    22  22  98 SE12      30.13S FOG     WCI  11
6HR MIN TEMP:  20; 6HR MAX TEMP:  22;

WADENA         CLOUDY    19  18  93 NW12      30.13S FOG     WCI   7
DETROIT LAKES  CLOUDY    23  21  93 SE9       30.11F FOG     WCI  13
MOORHEAD       CLOUDY    25  25 100 S13       30.12S FOG     WCI  13
FERGUS FALLS   CLOUDY    23  21  93 SE10      30.15F FOG     WCI  12
MORRIS MN      MOCLDY    25  23  93 SE12      30.13S FOG     WCI  14
STAPLES        CLOUDY    18  18 100 SE6       30.16S WCI   9
$$
  *****  WEATHER ELSEWHERE ACROSS MINNESOTA  *****

CITY           SKY/WX    TMP DP  RH WIND       PRES   REMARKS
DULUTH         CLOUDY    20  17  88 SW7       30.19F WCI  11
6HR MIN TEMP:  20; 6HR MAX TEMP:  22; 6HR PCP: TRACE;

INTRNTL FALLS  CLOUDY    21  17  84 VRB3      30.17S
6HR MIN TEMP:  21; 6HR MAX TEMP:  22; 6HR PCP:  0.01;

ELY            CLOUDY    21  18  86 S3        30.19S
CLOQUET        CLOUDY    19  18  93 CALM      30.20F
WHEATON        CLOUDY    23  21  93 SE12      30.14S WCI  12
BRAINERD       CLOUDY    19  16  88 S5        30.18F FOG     WCI  12
6HR MIN TEMP:  19; 6HR MAX TEMP:  19; 6HR PCP: TRACE;

HIBBING        CLOUDY    20  15  81 VRB5      30.19S WCI  13
6HR MIN TEMP:  19; 6HR MAX TEMP:  23; 6HR PCP: TRACE;

ALEXANDRIA     CLOUDY    22  20  92 SE12      30.14F FOG     WCI  10
6HR MIN TEMP:  20; 6HR MAX TEMP:  22; 6HR PCP: TRACE;

SAINT CLOUD    CLOUDY    22  17  81 SE7       30.21S WCI  13
6HR MIN TEMP:  22; 6HR MAX TEMP:  22; 6HR PCP:  0.02;

MINNEAPOLIS    CLOUDY    22  17  81 SE6       30.25S WCI  14
6HR MIN TEMP:  20; 6HR MAX TEMP:  22; 6HR PCP: TRACE;

$$

  *****  WEATHER ACROSS SOUTH DAKOTA  *****

CITY           SKY/WX    TMP DP  RH WIND       PRES   REMARKS
SIOUX FALLS    CLOUDY    28  25  88 S9        30.15R WCI  19
6HR MIN TEMP:  27; 6HR MAX TEMP:  29;

BROOKINGS      NOT AVBL
WATERTOWN      CLOUDY    26  24  92 S14       30.07S WCI  14
6HR MIN TEMP:  25; 6HR MAX TEMP:  26;

HURON          CLOUDY    28  25  88 S14       30.09R WCI  17
6HR MIN TEMP:  27; 6HR MAX TEMP:  28;

SISSETON         N/A     25  25 100 S10       30.10S WCI  15
ABERDEEN       CLOUDY    28  25  88 S12       30.07F WCI  18
6HR MIN TEMP:  27; 6HR MAX TEMP:  28;

MITCHELL       CLOUDY    29  27  92 S12       30.11S FOG     WCI  19
PIERRE         FOG       15  11  83 CALM      30.02S VSB 3/4
6HR MIN TEMP:  10; 6HR MAX TEMP:  17;

MOBRIDGE       MOCLDY    22  19  89 SE8       29.97R WCI  12
RAPID CITY     PTCLDY    28  18  66 NW8       29.97S WCI  20
6HR MIN TEMP:  22; 6HR MAX TEMP:  30;

$$

  *****  SOME WEATHER IN NEARBY STATES *****

CITY           SKY/WX    TMP DP  RH WIND       PRES   REMARKS
GLASGOW MT     MOCLDY    20  16  84 CALM      29.91S
6HR MIN TEMP:  18; 6HR MAX TEMP:  22;

GREAT FALLS MT PTCLDY    32  25  75 S12       29.87F WCI  23
6HR MIN TEMP:  30; 6HR MAX TEMP:  33;

CHEYENNE WY    CLEAR     23  11  60 SW9       30.03S WCI  13
6HR MIN TEMP:  20; 6HR MAX TEMP:  26;

SCOTTSBLUFF NE CLEAR      7   4  87 CALM      30.06S
6HR MIN TEMP:   2; 6HR MAX TEMP:  11;

OMAHA NE       CLOUDY    31  28  89 S6        30.23S
6HR MIN TEMP:  31; 6HR MAX TEMP:  31;

DES MOINES IA  LGT SNOW  29  25  85 SE5       30.25F FOG     WCI  24
6HR MIN TEMP:  28; 6HR MAX TEMP:  29; 6HR PCP: TRACE;

DAVENPORT IA   CLEAR     16  11  80 CALM      30.30R
6HR MIN TEMP:  13; 6HR MAX TEMP:  18;

CHICAGO IL     CLOUDY    28  22  78 N6        30.27R WCI  22
6HR MIN TEMP:  27; 6HR MAX TEMP:  28; 6HR PCP: TRACE;

EAU CLAIRE WI  CLOUDY    23  18  81 SW6       30.27R WCI  16
6HR MIN TEMP:  23; 6HR MAX TEMP:  24;

LA CROSSE WI   CLOUDY    25  17  72 CALM      30.29S
6HR MIN TEMP:  25; 6HR MAX TEMP:  26;

$$

  *****  SOME NATIONAL WEATHER *****

CITY           SKY/WX    TMP DP  RH WIND       PRES   REMARKS
LA GUARDIA NY  CLOUDY    37  24  59 NW14      30.00R
6HR MIN TEMP:  37; 6HR MAX TEMP:  38;

RALEIGH NC     MOCLDY    41  25  53 CALM      30.14R
6HR MIN TEMP:  37; 6HR MAX TEMP:  42;

ATLANTA GA     MOCLDY    38  32  79 NW5       30.14R
6HR MIN TEMP:  38; 6HR MAX TEMP:  41;

NEW ORLEANS LA LGT RAIN  57  50  77 E8        30.07R
6HR MIN TEMP:  57; 6HR MAX TEMP:  58; 6HR PCP: TRACE;

OKLAHOMA CITY  DRZL/FOG  39  37  92 N6        30.21R VSB 1/2
6HR MIN TEMP:  39; 6HR MAX TEMP:  41; 6HR PCP: TRACE;

ALBUQUERQUE NM CLEAR     33  26  75 N6        30.17S
6HR MIN TEMP:  31; 6HR MAX TEMP:  36;

SALT LAKE CITY PTCLDY    32  27  81 SE8       30.19R WCI  25
6HR MIN TEMP:  31; 6HR MAX TEMP:  34;

LOS ANGELES CA CLOUDY    51  46  83 CALM      30.19F
6HR MIN TEMP:  51; 6HR MAX TEMP:  56;




USA.gov is the U.S. government's official web portal to all federal, state and local government web resources and services.